EW9093 Weather Reports


time (UTC)temp
C
wind
direction
speed
KPH
gust
KPH
rain 1hr
cm
rain 24hr
cm
rain mn
cm
humidity
%
barometer
mb
20260507123804 13 119 8.0 20.9 0.00 0.00 0.00 71 1016.9
20260507122803 14 57 4.8 16.1 0.00 0.00 0.00 70 1016.9
20260507121804 13 98 3.2 9.7 0.00 0.00 0.00 71 1017.0
20260507121304 13 116 4.8 11.3 0.00 0.00 0.00 71 1017.1
20260507120804 13 109 8.0 12.9 0.00 0.00 0.00 72 1017.1
20260507115804 13 105 9.7 20.9 0.00 0.00 0.00 72 1017.0
20260507115307 13 48 4.8 16.1 0.00 0.00 0.00 72 1017.1
20260507112306 12 121 4.8 14.5 0.00 0.00 0.00 70 1017.1
20260507111805 12 88 3.2 11.3 0.00 0.00 0.00 73 1017.2
20260507110805 13 103 8.0 14.5 0.00 0.00 0.00 73 1017.2
20260507104806 12 82 4.8 11.3 0.00 0.00 0.00 76 1017.3
20260507101805 12 99 6.4 12.9 0.00 0.00 0.00 74 1017.5
20260507101305 12 110 3.2 11.3 0.00 0.00 0.00 75 1017.5
20260507094806 12 97 3.2 8.0 0.00 0.00 0.00 76 1017.4
20260507093805 12 85 4.8 8.0 0.00 0.00 0.00 74 1017.5
20260507092805 12 64 1.6 4.8 0.00 0.00 0.00 76 1017.4
20260507092307 12 149 3.2 8.0 0.00 0.00 0.00 75 1017.3
20260507091305 13 97 8.0 12.9 0.00 0.00 0.00 73 1017.4
20260507090805 13 76 4.8 8.0 0.00 0.00 0.00 75 1017.4
20260507090305 11 41 3.2 4.8 0.00 0.00 0.00 79 1017.4
20260507085807 11 74 3.2 4.8 0.00 0.00 0.00 79 1017.4
20260507083806 11 124 3.2 8.0 0.00 0.00 0.00 76 1017.4
20260507083305 11 353 1.6 3.2 0.00 0.00 0.00 80 1017.5
20260507082805 11 89 3.2 4.8 0.00 0.00 0.00 81 1017.5
20260507081805 10 80 3.2 4.8 0.00 0.00 0.00 81 1017.5
20260507080805 10 94 3.2 4.8 0.00 0.00 0.00 82 1017.5
20260507074805 10 123 8.0 11.3 0.00 0.00 0.00 84 1017.4
20260507070805 8 105 3.2 4.8 0.00 0.00 0.00 94 1017.3
20260507065805 8 111 3.2 4.8 0.00 0.00 0.00 95 1017.2
20260507065306 7 118 3.2 4.8 0.00 0.00 0.00 96 1017.2
20260507064805 7 69 1.6 3.2 0.00 0.00 0.00 96 1017.2
20260507063805 7 6 1.6 1.6 0.00 0.00 0.00 97 1017.1
20260507062306 7 339 0.0 0.0 0.00 0.00 0.00 97 1017.1
20260507061804 7 339 0.0 0.0 0.00 0.00 0.00 97 1017.2
20260507061304 6 339 0.0 0.0 0.00 0.00 0.00 97 1017.1
20260507060305 6 339 0.0 1.6 0.00 0.00 0.00 97 1017.0
20260507055306 6 339 0.0 3.2 0.00 0.00 0.00 97 1016.9
20260507054805 6 339 0.0 0.0 0.00 0.00 0.00 97 1016.7
20260507053305 5 28 0.0 0.0 0.00 0.00 0.00 97 1016.7
20260507052306 5 28 0.0 0.0 0.00 0.00 0.00 96 1016.6
20260507051805 5 28 0.0 0.0 0.00 0.00 0.00 96 1016.6
20260507045306 5 28 0.0 0.0 0.00 0.00 0.00 96 1016.5
20260507043805 5 28 0.0 1.6 0.00 0.00 0.00 96 1016.4
20260507043305 5 28 0.0 3.2 0.00 0.00 0.00 96 1016.4
20260507041305 5 28 1.6 3.2 0.00 0.00 0.00 96 1016.2
20260507040805 5 28 0.0 3.2 0.00 0.00 0.00 96 1016.2
20260507040305 5 28 0.0 0.0 0.00 0.00 0.00 96 1016.2
20260507034305 6 28 0.0 0.0 0.00 0.00 0.00 96 1016.1
20260507033805 6 28 0.0 3.2 0.00 0.00 0.00 96 1016.1
20260507033305 6 28 1.6 1.6 0.00 0.00 0.00 96 1016.0
20260507032306 6 28 0.0 3.2 0.00 0.00 0.00 96 1016.1
20260507031804 7 28 0.0 3.2 0.00 0.00 0.00 96 1016.1
20260507025805 7 28 0.0 0.0 0.00 0.00 0.00 96 1016.0
20260507024805 7 28 0.0 0.0 0.00 0.00 0.00 96 1016.2
20260507023805 7 28 0.0 0.0 0.00 0.00 0.00 96 1016.2
20260507023304 7 28 0.0 0.0 0.00 0.00 0.00 96 1016.1
20260507022805 7 28 0.0 0.0 0.00 0.00 0.00 96 1016.1
20260507022306 7 28 0.0 3.2 0.00 0.00 0.00 96 1016.2
20260507015804 7 28 0.0 3.2 0.00 0.00 0.00 95 1016.1
20260507015306 7 28 0.0 3.2 0.00 0.00 0.00 95 1016.0
20260507014305 7 28 1.6 3.2 0.00 0.00 0.00 95 1016.0
20260507013804 7 28 1.6 3.2 0.00 0.00 0.00 95 1016.0
20260507011805 7 28 1.6 3.2 0.00 0.00 0.00 95 1015.9
20260507010805 7 28 1.6 3.2 0.00 0.00 0.00 95 1016.0
20260507005805 7 28 1.6 3.2 0.00 0.00 0.00 95 1016.0
20260507004804 7 28 0.0 3.2 0.00 0.00 0.00 95 1016.0
20260507004304 7 28 0.0 3.2 0.00 0.00 0.00 95 1016.0
20260507003805 7 28 0.0 3.2 0.00 0.00 0.00 95 1016.0
20260507002804 7 28 0.0 3.2 0.00 0.00 0.00 95 1016.0
20260507001821 7 28 0.0 1.6 0.00 0.00 0.00 95 1016.0
20260507001311 7 28 0.0 3.2 0.00 0.00 0.00 95 1016.0
20260507000306 7 28 1.6 3.2 0.00 0.00 0.00 95 1016.1
20260506235307 7 34 1.6 3.2 0.00 0.00 0.00 95 1016.1
20260506234805 7 52 1.6 4.8 0.00 0.00 0.00 95 1016.1
20260506234304 7 34 1.6 3.2 0.00 0.00 0.00 95 1016.2
20260506233805 7 35 1.6 3.2 0.00 0.00 0.00 95 1016.2
20260506233305 7 46 1.6 3.2 0.00 0.00 0.00 95 1016.1
20260506232804 7 46 1.6 3.2 0.00 0.00 0.00 95 1016.1
20260506232306 7 46 1.6 3.2 0.00 0.00 0.00 95 1016.1
20260506231804 7 46 1.6 3.2 0.00 0.00 0.00 95 1016.1
20260506231305 7 46 1.6 3.2 0.00 0.00 0.00 95 1016.0
20260506230824 7 46 1.6 3.2 0.00 0.00 0.00 95 1016.0
20260506225306 7 44 1.6 8.0 0.00 0.00 0.00 95 1016.0
20260506224805 7 67 3.2 8.0 0.00 0.00 0.00 95 1016.0
20260506223804 8 50 3.2 8.0 0.00 0.00 0.00 95 1016.0
20260506223304 8 46 3.2 4.8 0.00 0.00 0.00 95 1016.0
20260506222306 8 44 1.6 4.8 0.00 0.00 0.00 94 1015.9
20260506221805 8 34 3.2 3.2 0.00 0.00 0.00 94 1015.9
20260506220805 8 34 1.6 4.8 0.00 0.00 0.00 94 1016.0
20260506220304 8 20 1.6 3.2 0.00 0.00 0.00 94 1016.0
20260506214804 8 37 1.6 4.8 0.00 0.00 0.00 94 1015.8
20260506214304 8 35 1.6 4.8 0.00 0.00 0.00 94 1015.8
20260506212306 8 37 3.2 8.0 0.00 0.00 0.00 94 1015.6
20260506211804 8 49 1.6 9.7 0.00 0.00 0.00 94 1015.6
20260506210305 8 31 3.2 9.7 0.00 0.00 0.00 94 1015.4
20260506205306 8 48 3.2 8.0 0.00 0.00 0.00 94 1015.4
20260506204804 8 60 3.2 9.7 0.00 0.00 0.00 94 1015.4
20260506203804 8 40 3.2 11.3 0.00 0.00 0.00 94 1015.4
20260506195306 8 47 4.8 12.9 0.00 0.00 0.00 93 1015.2
20260506194804 9 68 3.2 12.9 0.00 0.00 0.00 93 1015.1
20260506193805 9 66 4.8 14.5 0.00 0.00 0.00 93 1015.0
20260506192806 9 46 8.0 16.1 0.00 0.00 0.00 93 1015.0
20260506185307 9 47 4.8 11.3 0.00 0.00 0.00 94 1014.7
20260506184804 9 40 3.2 11.3 0.00 0.00 0.00 93 1014.7
20260506184304 9 42 6.4 12.9 0.00 0.00 0.00 93 1014.7
20260506183805 10 50 4.8 9.7 0.00 0.00 0.00 93 1014.7
20260506182805 10 39 3.2 11.3 0.00 0.00 0.00 93 1014.7
20260506182306 10 30 3.2 9.7 0.00 0.00 0.00 92 1014.5
20260506181805 10 35 3.2 9.7 0.00 0.00 0.00 92 1014.5
20260506180304 10 48 3.2 12.9 0.00 0.00 0.00 92 1014.3
20260506175804 10 44 6.4 12.9 0.00 0.00 0.00 91 1014.2
20260506175306 10 48 6.4 12.9 0.00 0.00 0.00 90 1014.1
20260506174804 11 4 4.8 9.7 0.00 0.00 0.00 90 1014.1
20260506173805 11 355 3.2 9.7 0.00 0.00 0.00 89 1014.0
20260506171304 11 345 4.8 12.9 0.00 0.00 0.00 86 1014.0
20260506170304 11 14 3.2 8.0 0.00 0.00 0.00 85 1014.0
20260506165804 11 23 4.8 9.7 0.00 0.00 0.00 85 1014.0
20260506164804 11 1 3.2 11.3 0.00 0.00 0.00 85 1013.9
20260506163805 11 45 3.2 9.7 0.00 0.00 0.00 84 1014.0
20260506162804 11 38 4.8 16.1 0.00 0.00 0.00 82 1014.0
20260506161804 11 40 4.8 11.3 0.00 0.00 0.00 83 1014.0
20260506161304 10 67 6.4 14.5 0.00 0.00 0.00 82 1014.0
20260506160804 11 26 6.4 12.9 0.00 0.00 0.00 85 1014.1
20260506160305 11 12 4.8 12.9 0.00 0.00 0.00 86 1014.0
20260506155804 11 353 4.8 11.3 0.00 0.00 0.00 86 1014.0
20260506154304 11 5 6.4 11.3 0.00 0.00 0.00 86 1014.0
20260506153304 11 21 3.2 9.7 0.00 0.00 0.00 86 1014.0
20260506152804 11 47 4.8 11.3 0.00 0.00 0.00 86 1014.0
20260506152306 11 34 6.4 11.3 0.00 0.00 0.00 86 1013.9
20260506151304 11 19 4.8 12.9 0.00 0.00 0.00 84 1013.9
20260506150804 11 22 4.8 12.9 0.00 0.00 0.00 84 1013.9
20260506150305 11 30 6.4 14.5 0.00 0.00 0.00 83 1013.8
20260506145803 11 30 3.2 14.5 0.00 0.00 0.00 84 1013.8
20260506145306 11 352 9.7 19.3 0.00 0.00 0.00 83 1013.8
20260506142306 11 356 6.4 16.1 0.00 0.00 0.00 81 1013.8
20260506141303 11 21 9.7 19.3 0.00 0.00 0.00 81 1013.8
20260506135804 11 15 8.0 22.5 0.00 0.00 0.00 82 1013.9
20260506134804 11 34 9.7 19.3 0.00 0.00 0.00 84 1013.9
20260506134304 11 332 8.0 16.1 0.00 0.00 0.00 83 1014.0
20260506133803 11 354 9.7 20.9 0.00 0.00 0.00 83 1014.0
20260506133303 11 16 9.7 22.5 0.00 0.00 0.00 83 1014.0
20260506132804 11 332 11.3 25.7 0.00 0.00 0.00 83 1013.9
20260506131804 11 347 11.3 27.4 0.00 0.00 0.00 80 1014.0
20260506130304 11 349 12.9 27.4 0.00 0.00 0.00 83 1013.9
20260506125803 11 336 11.3 25.7 0.00 0.00 0.00 82 1013.8
20260506124804 11 335 14.5 25.7 0.00 0.00 0.00 79 1013.8
20260506124304 11 347 14.5 29.0 0.00 0.00 0.00 75 1013.8